Time,TemperatureF,DewpointF,PressureIn,WindDirection,WindDirectionDegrees,WindSpeedMPH,WindSpeedGustMPH,Humidity,HourlyPrecipIn,Conditions,Clouds,dailyrainin,SolarRadiationWatts/m^2,SoftwareType,DateUTC
2018-01-23 00:03:00,36.7,11.0,30.15,WSW,250,0.0,0.0,34,0.00,,,0.00,0,weatherlink.com 1.10,2018-01-23 07:03:00,
2018-01-23 00:33:00,35.6,11.0,30.15,West,269,0.0,0.0,36,0.00,,,0.00,0,weatherlink.com 1.10,2018-01-23 07:33:00,
2018-01-23 00:48:00,35.4,11.0,30.15,West,268,0.0,0.0,37,0.00,,,0.00,0,weatherlink.com 1.10,2018-01-23 07:48:00,
2018-01-23 01:18:00,35.6,10.0,30.16,SW,223,0.0,0.0,35,0.00,,,0.00,0,weatherlink.com 1.10,2018-01-23 08:18:00,
2018-01-23 01:33:00,34.8,11.0,30.16,WSW,252,0.0,0.0,37,0.00,,,0.00,0,weatherlink.com 1.10,2018-01-23 08:33:00,
2018-01-23 01:48:00,34.4,11.0,30.16,WSW,244,0.0,0.0,38,0.00,,,0.00,0,weatherlink.com 1.10,2018-01-23 08:48:00,
2018-01-23 02:03:00,33.9,11.0,30.16,WNW,284,0.0,0.0,39,0.00,,,0.00,0,weatherlink.com 1.10,2018-01-23 09:03:00,
2018-01-23 02:18:00,34.1,11.0,30.17,WSW,256,0.0,0.0,38,0.00,,,0.00,0,weatherlink.com 1.10,2018-01-23 09:18:00,
2018-01-23 02:48:00,33.6,11.0,30.17,WSW,239,0.0,0.0,39,0.00,,,0.00,0,weatherlink.com 1.10,2018-01-23 09:48:00,
2018-01-23 03:03:00,32.7,12.0,30.17,West,281,0.0,0.0,42,0.00,,,0.00,0,weatherlink.com 1.10,2018-01-23 10:03:00,
2018-01-23 03:18:00,34.0,11.0,30.17,WSW,244,0.0,0.0,39,0.00,,,0.00,0,weatherlink.com 1.10,2018-01-23 10:18:00,
2018-01-23 03:48:00,34.5,10.0,30.18,SW,221,0.0,0.0,36,0.00,,,0.00,0,weatherlink.com 1.10,2018-01-23 10:48:00,
2018-01-23 04:03:00,33.4,10.0,30.18,SW,230,0.0,0.0,38,0.00,,,0.00,0,weatherlink.com 1.10,2018-01-23 11:03:00,
2018-01-23 04:18:00,33.0,10.0,30.18,West,271,0.0,0.0,38,0.00,,,0.00,0,weatherlink.com 1.10,2018-01-23 11:18:00,
2018-01-23 04:33:00,33.3,9.0,30.17,WNW,284,0.0,0.0,37,0.00,,,0.00,0,weatherlink.com 1.10,2018-01-23 11:33:00,
2018-01-23 04:48:00,32.9,9.0,30.17,WSW,248,0.0,0.0,37,0.00,,,0.00,0,weatherlink.com 1.10,2018-01-23 11:48:00,
2018-01-23 05:03:00,33.5,8.0,30.17,WSW,255,0.0,0.0,35,0.00,,,0.00,0,weatherlink.com 1.10,2018-01-23 12:03:00,
2018-01-23 05:33:00,33.6,9.0,30.18,West,263,0.0,0.0,36,0.00,,,0.00,0,weatherlink.com 1.10,2018-01-23 12:33:00,
2018-01-23 05:49:00,33.7,9.0,30.18,West,278,0.0,0.0,36,0.00,,,0.00,0,weatherlink.com 1.10,2018-01-23 12:49:00,
2018-01-23 06:03:00,33.3,9.0,30.18,WNW,290,0.0,0.0,36,0.00,,,0.00,0,weatherlink.com 1.10,2018-01-23 13:03:00,
2018-01-23 06:33:00,32.8,8.0,30.18,NW,309,0.0,0.0,35,0.00,,,0.00,0,weatherlink.com 1.10,2018-01-23 13:33:00,
2018-01-23 06:49:00,32.4,8.0,30.18,WNW,287,0.0,0.0,36,0.00,,,0.00,0,weatherlink.com 1.10,2018-01-23 13:49:00,
2018-01-23 07:04:00,32.6,8.0,30.19,WNW,299,0.0,0.0,36,0.00,,,0.00,0,weatherlink.com 1.10,2018-01-23 14:04:00,
2018-01-23 07:19:00,33.0,9.0,30.19,WNW,291,0.0,0.0,36,0.00,,,0.00,5,weatherlink.com 1.10,2018-01-23 14:19:00,
2018-01-23 07:34:00,-999.9,-99.9,30.19,North,-9999,-999.9,-999.0,-999,0.00,,,0.00,,weatherlink.com 1.10,2018-01-23 14:34:00,